This is the latest recevied weather packets stored in our database for station/object JF7BTK-10. If no packets are shown the sender has not sent any weather packets the latest 10 day(s).
| Time | Temp. | Humidity | Pressure | Rain* | Wind** | Luminosity | Snow |
|---|---|---|---|---|---|---|---|
| 1777783436 | 22.78° C | 35% | 999.7 hPa | 0 mm | - | - | - |
| 1777782536 | 22.78° C | 34% | 1000 hPa | 0 mm | - | - | - |
| 1777781636 | 23.33° C | 34% | 1000.6 hPa | 0 mm | - | - | - |
| 1777780735 | 22.78° C | 35% | 1000.6 hPa | 0 mm | - | - | - |
| 1777779836 | 22.78° C | 36% | 1000.6 hPa | 0 mm | - | - | - |
| 1777778936 | 22.78° C | 40% | 1001 hPa | 0 mm | - | - | - |
| 1777778036 | 22.22° C | 41% | 1001.2 hPa | 0 mm | - | - | - |
| 1777777135 | 22.78° C | 35% | 1001.3 hPa | 0 mm | - | - | - |
| 1777776237 | 22.22° C | 37% | 1001.6 hPa | 0 mm | - | - | - |
| 1777775336 | 21.67° C | 41% | 1002.1 hPa | 0 mm | - | - | - |
| 1777774436 | 21.11° C | 43% | 1002.1 hPa | 0 mm | - | - | - |
| 1777773535 | 20.56° C | 44% | 1002.5 hPa | 0 mm | - | - | - |
| 1777772636 | 20.56° C | 42% | 1002.9 hPa | 0 mm | - | - | - |
| 1777771735 | 20.56° C | 43% | 1002.7 hPa | 0 mm | - | - | - |
| 1777770836 | 19.44° C | 47% | 1003 hPa | 0 mm | - | - | - |
| 1777769935 | 18.89° C | 47% | 1003.3 hPa | 0 mm | - | - | - |
| 1777769037 | 18.33° C | 46% | 1003.4 hPa | 0 mm | - | - | - |
| 1777768136 | 18.33° C | 47% | 1003.6 hPa | 0 mm | - | - | - |
| 1777767236 | 17.78° C | 48% | 1004 hPa | 0 mm | - | - | - |
| 1777766336 | 17.22° C | 55% | 1004.2 hPa | 0 mm | - | - | - |
| 1777765436 | 16.67° C | 54% | 1004.2 hPa | 0 mm | - | - | - |
| 1777764537 | 16.67° C | 58% | 1004.4 hPa | 0 mm | - | - | - |
| 1777763636 | 15.56° C | 61% | 1004.4 hPa | 0 mm | - | - | - |
| 1777762736 | 15° C | 64% | 1004.8 hPa | 0 mm | - | - | - |
| 1777761836 | 14.44° C | 65% | 1005.3 hPa | 0 mm | - | - | - |
* Rain latest hour (hover to see other rain measurements)
** Current wind speed in m/s (hover to see current wind gust speed)